Regional Weather Roundup
Issued by NWS

Home | Current Version | Previous Version | Text Only | Print | Product List | Glossary On
Versions: 1 2 3 4 5 6 7 8 9 10 11 12 13 14 15 16 17 18 19 20 21 22 23 24 25 26 27
000
ASUS42 KKEY 050110
RWRKEY

FLORIDA REGIONAL WEATHER ROUNDUP FOR THE FLORIDA KEYS
NATIONAL WEATHER SERVICE KEY WEST FLORIDA
900 PM EDT WED MAY 04 2016

...SOUTH FLORIDA AND THE KEYS...

CITY           SKY/WX    TMP DP  RH WIND       PRES   REMARKS
FORT MYERS     CLOUDY    74  72  93 W13       29.69R
SW REGIONAL AP LGT RAIN  74  70  87 W13       29.69S
NAPLES         CLOUDY    75  75 100 W8        29.70R
MIAMI          RAIN      73  71  93 SW13G20   29.74F FOG
WEST KENDALL   LGT RAIN  72  72 100 W9        29.74F
HOMESTEAD      CLOUDY    74  71  93 VRB6      29.74F
MARATHON       CLOUDY    78  68  71 SW15G25   29.72R
BOCA CHICA NAS CLOUDY    76  71  85 SW22G31   29.75S
KEY WEST INTL  CLOUDY    73  72  96 SW24G31   29.76S

...INTERNATIONAL WEATHER...

CITY           SKY/WX    TMP DP  RH WIND       PRES   REMARKS
NASSAU BAHAMAS NOT AVBL
CANCUN MEXICO  MOCLDY    79  75  89 NW8       29.85S
COZUMEL MEXICO PTCLDY    72  72 100 CALM      29.85S

ADJACENT COASTAL WATERS...

STATION/POSITION TIME  SKY/WX   TEMP    WIND        PRES    WAVE
                                AIR SEA DIR/SP/G            HT/PER
                 (UTC)          (F)     (DEG/KT/KT) (MB)    (FT/S)
PULASKI SHOAL LI 0100            75     200/ 17/ 19 1008.2S
SAND KEY         0050            76     230/ 22/ 25 1008.2F
SOMBRERO KEY     NOT AVBL
LONG KEY         0000            81 83  220/ 29/ 33 1006.5R
MOLASSES REEF    NOT AVBL
FOWEY ROCKS      NOT AVBL

$$




USA.gov is the U.S. government's official web portal to all federal, state and local government web resources and services.